This is the latest recevied weather packets stored in our database for station/object AG1T-20. If no packets are shown the sender has not sent any weather packets the latest 10 day(s).
| Time | Temp. | Humidity | Pressure | Rain* | Wind** | Luminosity | Snow |
|---|---|---|---|---|---|---|---|
| 1787862604 | 31.11° C | 32% | 1021.6 hPa | 0 mm | - | 248 W/m² | - |
| 1787862004 | 31.11° C | 27% | 1021.6 hPa | 0 mm | - | 300 W/m² | - |
| 1787861405 | 31.11° C | 29% | 1021.6 hPa | 0 mm | - | 264 W/m² | - |
| 1787860804 | 32.22° C | 26% | 1021.6 hPa | 0 mm | - | 322 W/m² | - |
| 1787860204 | 31.67° C | 28% | 1021.9 hPa | 0 mm | - | 769 W/m² | - |
| 1787859605 | 31.11° C | 27% | 1021.9 hPa | 0 mm | - | 534 W/m² | - |
| 1787859004 | 31.11° C | 29% | 1021.9 hPa | 0 mm | - | 816 W/m² | - |
| 1787858404 | 30.56° C | 33% | 1021.9 hPa | 0 mm | - | 829 W/m² | - |
| 1787857805 | 30.56° C | 32% | 1021.9 hPa | 0 mm | - | 830 W/m² | - |
| 1787857205 | 30° C | 32% | 1021.9 hPa | 0 mm | - | 834 W/m² | - |
| 1787856604 | 30.56° C | 35% | 1022.2 hPa | 0 mm | - | 840 W/m² | - |
| 1787856004 | 30.56° C | 33% | 1022.2 hPa | 0 mm | - | 853 W/m² | - |
| 1787855404 | 28.89° C | 34% | 1022.2 hPa | 0 mm | - | 875 W/m² | - |
| 1787854804 | 29.44° C | 33% | 1022.2 hPa | 0 mm | - | 935 W/m² | - |
| 1787854204 | 28.89° C | - | - | 0 mm | - | 104 W/m² | - |
| 1787853605 | 28.33° C | 34% | 1022.2 hPa | 0 mm | - | 892 W/m² | - |
| 1787853004 | 27.78° C | 39% | 1022.7 hPa | 0 mm | - | 917 W/m² | - |
| 1787852404 | 27.22° C | 41% | 1022.7 hPa | 0 mm | - | 915 W/m² | - |
| 1787851805 | 26.67° C | - | - | 0 mm | - | 100 W/m² | - |
| 1787851204 | 26.11° C | 42% | 1022.7 hPa | 0 mm | - | 434 W/m² | - |
| 1787850604 | 25.56° C | 44% | 1022.7 hPa | 0 mm | - | 846 W/m² | - |
| 1787850004 | 25° C | 43% | 1022.7 hPa | 0 mm | - | 828 W/m² | - |
| 1787849405 | 23.89° C | 42% | 1022.8 hPa | 0 mm | - | 817 W/m² | - |
| 1787848805 | 23.89° C | 46% | 1022.8 hPa | 0 mm | - | 807 W/m² | - |
| 1787848205 | 23.89° C | 46% | 1022.8 hPa | 0 mm | - | 795 W/m² | - |
* Rain latest hour (hover to see other rain measurements)
** Current wind speed in m/s (hover to see current wind gust speed)